Regional Weather Roundup
Issued by NWS Wakefield, VA

Home | Current Version | Previous Version | Text Only | Print | Product List | Glossary On
Versions: 1 2 3 4 5 6 7 8 9 10 11 12 13 14 15 16 17 18 19 20 21 22 23 24 25 26 27 28 29 30 31 32 33 34 35 36 37 38 39 40 41 42 43 44 45 46 47 48 49 50
000
ASUS41 KAKQ 300910
RWRAKQ

REGIONAL WEATHER ROUNDUP
NATIONAL WEATHER SERVICE WAKEFIELD VA
500 AM EDT WED JUL 30 2014

Note: "fair" indicates few or no clouds below 12,000 feet with no
significant weather and/or obstructions to visibility. * = Denotes
station may not report precipitation (e.g., rain,snow,etc.),
thunder or fog.

VAZ042-051-052>054-056-301000-
NORTHERN VIRGINIA

CITY           SKY/WX    TMP DP  RH WIND       PRES   REMARKS
WASH NATIONAL  MOCLDY    61  50  67 N3        30.03S
DULLES         CLEAR     50  48  93 CALM      30.04R
FORT BELVOIR   NOT AVBL
QUANTICO       CLEAR     56  51  84 NW6       30.05R
FREDERICKSBRG* CLEAR     57  53  88 CALM      30.04R
STAFFORD*      CLEAR     52  52 100 CALM      30.08R
WARRENTON      CLEAR     49  49 100 CALM      30.04R FOG
CULPEPER*      FOG      N/A N/A N/A CALM      30.05S VSB 1
MANASSAS*      CLEAR     52  52 100 CALM      30.04S
LEESBURG*      CLEAR     52  52 100 CALM      30.05R
WINCHESTER     CLEAR     54  50  87 SW5       30.05R
$$

VAZ048-049-060>072-079>083-301000-
CENTRAL AND SOUTH CENTRAL VIRGINIA...AND NORTH CENTRAL NORTH CAROLINA

CITY           SKY/WX    TMP DP  RH WIND       PRES   REMARKS
RICHMOND       MOCLDY    65  51  60 NW3       30.04R
CHESTERFIELD*  PTSUNNY   63  46  55 CALM      30.05R
HANOVER        CLEAR     57  53  86 CALM      30.06R
TAPPAHANNOCK*  CLEAR     56  52  86 CALM      30.04R
CHARLOTTSVILLE PTCLDY    56  53  90 CALM      30.05S
ORANGE*        CLEAR     52  50  93 CALM      30.06S
LOUISA*        MOCLDY    52  48  87 CALM      30.05R
FARMVILLE*     PTCLDY    61  54  77 NW5       30.04R
SOUTH HILL*    CLOUDY    64  55  72 CALM      30.09S
ROANOKE RAPIDS NOT AVBL
RALEIGH        PTCLDY    65  59  81 NE5       30.04R
$$

VAZ088>098-301000-
SOUTHEAST VIRGINIA

CITY           SKY/WX    TMP DP  RH WIND       PRES   REMARKS
NORFOLK        CLEAR     70  58  65 CALM      30.01R
VIRGINIA BEACH PTCLDY    64  58  80 CALM      30.00R
NORFOLK NAVAL  MOCLDY    72  53  51 N10       30.02R
WEST POINT*    CLOUDY    67  52  58 CALM      30.05R
NEWPORT NEWS   CLOUDY    69  55  60 N5        30.02R
LANGLEY AFB    CLOUDY    67  55  65 VRB6      30.01R
FORT EUSTIS    CLOUDY    68  54  60 N6        30.01R
WILLIAMSBURG*  MOCLDY    68  57  68 N5        30.03R
FRANKLIN*      CLOUDY    63  61  94 CALM      30.03R
WAKEFIELD      CLOUDY    65  57  75 CALM      30.03R
$$

VAZ020-022-025-037-045-301000-
WESTERN AND SOUTHWEST VIRGINIA

CITY           SKY/WX    TMP DP  RH WIND       PRES   REMARKS
STAUNTON*      CLEAR     51  49  92 CALM      30.10R
HOT SPRINGS VA CLEAR     48  47  93 W7        30.14S
LYNCHBURG      CLEAR     55  54  96 CALM      30.09R
DANVILLE       CLEAR     63  58  83 N5        30.06R
MARTINSVILLE   CLEAR     56  54  92 CALM      30.10S
ROANOKE        PTCLDY    58  52  80 CALM      30.11R
BLACKSBURG     CLEAR     50  50 100 CALM        N/A  FOG
DUBLIN*        CLEAR     52  51  97 NW3       30.13S
MARION*        CLEAR     48  46  93 CALM      30.16S
HILLSVILLE*    PTCLDY    52  48  86 CALM      30.13S
RICHLANDS*     SUNNY     55  51  88 CALM      30.13S
WISE*          CLEAR     52  52 100 CALM      30.14F
ABINGDON*      CLEAR     52  51  97 CALM      30.13R
$$

MDZ021>025-VAZ099-100-301000-
SOUTHERN MARYLAND AND THE DELMARVA PENINSULA

CITY           SKY/WX    TMP DP  RH WIND       PRES   REMARKS
PATUXENT RIVER PTCLDY    57  51  80 W6        30.02R
BAY BRIDGE APT   N/A     63  54  72 NW5       30.02R
LEONARDTOWN    CLEAR     54  48  82 CALM      30.04R
DOVER          CLEAR     62  56  81 W8        29.98R
GEORGETOWN     CLEAR     60  55  83 VRB3      30.01R
EASTON         CLEAR     61  61 100 CALM      30.05R
CAMBRIDGE      CLEAR     59  55  88 CALM      30.01R
SALISBURY      NOT AVBL
OCEAN CITY     CLEAR     57  54  89 NW3       30.00R
WALLOPS ISLAND CLEAR     62  55  77 NW3       30.01R
ACCOMACK*        N/A     57  54  88 CALM      30.01R
$$

NCZ012>017-030>032-301000-
EASTERN NORTH CAROLINA

CITY           SKY/WX    TMP DP  RH WIND       PRES   REMARKS
ELIZABETH CITY CLEAR     63  61  93 NW3       30.01R
AHOSKIE*       PTCLDY    60  58  94 CALM        N/A
EDENTON*       CLEAR     63  62  96 CALM      30.00R
CURRITUCK*     CLEAR     61  56  83 CALM      30.01R
KILL DEVIL HLS CLEAR     71  59  64 CALM      29.98R
MANTEO         NOT AVBL
CAPE HATTERAS  MOCLDY    73  64  73 NE6       29.98R
GOLDSBORO      CLEAR     64  63  98 E2        29.98R
WASHINGTON     CLEAR     63  62  95 CALM      30.00R
GREENVILLE     CLEAR     63  63 100 N3        30.02R FOG
NEW BERN       CLEAR     72  65  78 NE6       29.99S
WILMINGTON     CLEAR     69  67  93 NE5       29.97R
$$

VAZ048-301000-
ELSEWHERE

CITY           SKY/WX    TMP DP  RH WIND       PRES   REMARKS
HARRISBURG PA  CLEAR     57  52  83 CALM      30.01S
BALTIMORE      CLEAR     56  50  80 W5        30.02R
ANNAPOLIS      CLEAR     59  51  75 W6        30.02R
ANDREWS AFB    CLEAR     57  51  80 CALM      30.03R
WILMINGTON DE  CLEAR     58  54  86 NW7       30.01R
PHILADELPHIA   PTCLDY    63  52  67 N7        30.00R
WILDWOOD NJ*   CLEAR     59  54  82 CALM      30.00R
ATLANTIC CITY  PTCLDY    61  58  90 NW3       29.98R
HENDERSON NC   LGT RAIN  62  58  87 CALM      30.05S
GREENSBORO     PTCLDY    62  55  77 N6        30.05R
ROCKY MOUNT    PTCLDY    63  61  93 NE5       30.01R
FAYETTEVILLE   CLEAR     63  61  93 N3        29.98S
CHARLOTTE      CLEAR     64  51  62 N10       30.04R
$$

VAZ100-301000-
MARINE

STATION/POSITION TIME  TEMP    WIND        PRES    WAVE   SWELL
                       AIR SEA DIR/SP/G            HT/PER HT/PER
                 (UTC) (F)     (DEG/KT/KT) (MB)    (FT/S) (FT/S)
44066 TX TWR #4  0900   71 74  290/  4/  6 1014.6R   3/ 8   3/ 8
CAPE MAY NJ      0900   69 78  320/  6/ 12 1014.7S
LEWES DE         0900   63 71  280/  8/ 10 1015.2R
15NM E FENWICK I 0900   69 73              1015.5R   2/ 7
OCEAN-CITY-INLET 0900   62 70  320/  6/  8 1015.1R
WACHAPREAGUE VA  0900   62 77   CALM  /  2 1015.9R
THOMAS POINT MD  0900   64 77  310/ 10/ 12 1017.0R
GOOSES REEF MD   0900   67     340/ 10/ 14 1016.7R
COVE POINT MD    0900   64     320/  7/  9 1016.2R
SOLOMONS ISLAND  0900      79                N/A
BISHOPS HEAD MD  0900   66 75  330/  6/  7 1015.6S
PINEY POINT MD   0900           10/  9/ 10   N/A
POTOMAC MD       0900   68     350/ 10/ 12 1015.6R
CAMBRIDGE MD     0900   69 78  320/  9/ 11 1015.8R
LEWISETTA VA     0900   65 76  290/  4/  5 1016.3R
RAPPAHANNOCK LGT 0900          330/  8/  9 1016.5R
STINGRAY PT      0900   70     340/ 12/ 14 1016.7R
YORK RVR RNG VA  0900   71     360/  8/ 10 1015.5F
YORKTOWN VA      0900   69 78  350/  6/  8 1016.0S
JAMESTOWN VA     0900   70     360/  6/  8   N/A
DOMINION TERM VA 0900   70      10/  6/  9 1016.2R
KIPTOPEKE VA     0900      80   50/  4/  4   N/A
CHES BAY BRIDGE  0900   73 75   10/  7/  8 1015.4R
CAPE HENRY VA    0900   73     360/  6/  8 1014.8R
WILLOUBY STN VA  0900          350/ 10/ 11 1015.2S
S CRANEY ISL VA  0900          340/ 11/ 12 1016.0R
CAPE HENRY BUOY  0900      77                N/A     2/ 8
1ST LANDING BUOY 0900   74      20/  8/ 10 1015.6R
CAPE CHARLES BUO 0900      76                N/A     2/ 8
OFFSHORE WE BUOY 0900      78                N/A     2/ 8
64NM E OF VA BCH 0900   74 78  360/ 10/ 12 1015.2R   2/ 8   2/ 8
DUCK PIER NC     0900   75 75   30/  7/  8 1014.9R
44056 DUCK FRF   0900                        N/A     2/ 8
OREGON INLET NC  0900   73 78   30/  5/  8 1015.3R
HATTERAS NC      0900   75 80   50/  6/  8 1015.4R
DIAMOND SHLS NC  0900          VRB 12/ 16  1014.5R   3/ 8   2/ 8
CAPE LOOKOUT NC  0800   77      50/ 12/ 14 1014.5R
$$


USA.gov is the U.S. government's official web portal to all federal, state and local government web resources and services.